When you browse on this site, cookies collect data to enhance your experience and personalize the content and advertising you see.
Visit our Privacy Policy to learn more. By continuing to use the site, you agree to this use of cookies and data.
  • In Romania
  • List of Countries
  • For 7 days
  • Water Temperature
  • Satellite Maps
  • Weather Map
  • Weather Widgets
  • user-avatar
    Login

    Hourly Weather Vidin

    Today, 24 June, Monday

    Time Temperature Precipitation Wind Pressure Humidity
    00:00 +22°C° 0.5 mm 1 mps 757 mmHg 93%
    01:00 +21°C° 0.5 mm 1 mps 757 mmHg 94%
    02:00 +20°C° 0 mm 2 mps 758 mmHg 94%
    03:00 +20°C° 0.2 mm 2 mps 758 mmHg 94%
    04:00 +20°C° 0.2 mm 2 mps 758 mmHg 93%
    05:00 +20°C° 0.2 mm 2 mps 758 mmHg 93%
    06:00 +21°C° 0 mm 2 mps 758 mmHg 88%
    07:00 +23°C° 0 mm 2 mps 758 mmHg 83%
    08:00 +24°C° 0 mm 3 mps 759 mmHg 79%
    09:00 +26°C° 0 mm 3 mps 759 mmHg 73%
    10:00 +27°C° 0 mm 2 mps 759 mmHg 68%
    11:00 +28°C° 0 mm 2 mps 759 mmHg 62%
    12:00 +29°C° 0 mm 2 mps 759 mmHg 60%
    13:00 +30°C° 0 mm 1 mps 759 mmHg 57%
    14:00 +31°C° 0 mm 1 mps 759 mmHg 55%
    15:00 +31°C° 0.4 mm 2 mps 759 mmHg 58%
    16:00 +30°C° 0.4 mm 2 mps 759 mmHg 60%
    17:00 +30°C° 0.4 mm 2 mps 759 mmHg 63%
    18:00 +29°C° 1 mm 2 mps 759 mmHg 69%
    19:00 +27°C° 1 mm 2 mps 759 mmHg 75%
    20:00 +26°C° 1 mm 1 mps 759 mmHg 82%
    21:00 +25°C° 1.3 mm 2 mps 760 mmHg 85%
    22:00 +24°C° 1.3 mm 2 mps 760 mmHg 87%
    23:00 +24°C° 1.3 mm 2 mps 760 mmHg 90%

    Tomorrow, 25 June, Tuesday

    Time Temperature Precipitation Wind Pressure Humidity
    00:00 +23°C° 0.9 mm 2 mps 761 mmHg 92%
    01:00 +23°C° 0.9 mm 2 mps 761 mmHg 93%
    02:00 +21°C° 0.9 mm 2 mps 761 mmHg 95%
    03:00 +21°C° 0.7 mm 2 mps 761 mmHg 95%
    04:00 +22°C° 0.7 mm 1 mps 761 mmHg 95%
    05:00 +22°C° 0.7 mm 1 mps 761 mmHg 95%
    06:00 +23°C° 0 mm 1 mps 761 mmHg 91%
    07:00 +24°C° 0 mm 1 mps 762 mmHg 86%
    08:00 +25°C° 0 mm 1 mps 762 mmHg 82%
    09:00 +27°C° 0 mm 1 mps 762 mmHg 77%
    10:00 +28°C° 0 mm 1 mps 762 mmHg 71%
    11:00 +29°C° 0 mm 1 mps 762 mmHg 66%
    12:00 +30°C° 0.1 mm 1 mps 762 mmHg 61%
    13:00 +31°C° 0.1 mm 2 mps 762 mmHg 57%
    14:00 +32°C° 0.1 mm 2 mps 762 mmHg 53%
    15:00 +32°C° 0 mm 2 mps 762 mmHg 53%
    16:00 +32°C° 0 mm 2 mps 762 mmHg 52%
    17:00 +32°C° 0 mm 2 mps 762 mmHg 52%
    18:00 +30°C° 0.2 mm 2 mps 762 mmHg 58%
    19:00 +29°C° 0.2 mm 2 mps 762 mmHg 65%
    20:00 +27°C° 0.2 mm 2 mps 762 mmHg 71%
    21:00 +26°C° 1.8 mm 1 mps 763 mmHg 76%
    22:00 +25°C° 1.8 mm 1 mps 763 mmHg 81%
    23:00 +22°C° 1.8 mm 0 mps 763 mmHg 86%

    Day after tomorrow, 26 June, Wednesday

    Time Temperature Precipitation Wind Pressure Humidity
    00:00 +23°C° 0.1 mm 1 mps 763 mmHg 87%
    01:00 +23°C° 0.1 mm 1 mps 763 mmHg 88%
    02:00 +23°C° 0.1 mm 1 mps 763 mmHg 89%
    03:00 +23°C° 0 mm 1 mps 763 mmHg 90%
    04:00 +22°C° 0 mm 1 mps 763 mmHg 91%
    05:00 +22°C° 0 mm 1 mps 763 mmHg 92%
    06:00 +23°C° 0 mm 1 mps 763 mmHg 87%
    07:00 +25°C° 0 mm 1 mps 763 mmHg 83%
    08:00 +26°C° 0 mm 1 mps 764 mmHg 79%
    09:00 +27°C° 0 mm 1 mps 764 mmHg 73%
    10:00 +29°C° 0 mm 2 mps 764 mmHg 67%
    11:00 +30°C° 0 mm 3 mps 763 mmHg 61%
    12:00 +31°C° 0 mm 3 mps 763 mmHg 59%
    13:00 +31°C° 0 mm 3 mps 763 mmHg 57%
    14:00 +33°C° 0 mm 3 mps 763 mmHg 56%
    15:00 +33°C° 0 mm 3 mps 763 mmHg 56%
    16:00 +33°C° 0 mm 3 mps 762 mmHg 57%
    17:00 +31°C° 0 mm 3 mps 762 mmHg 58%
    18:00 +30°C° 0.1 mm 3 mps 762 mmHg 65%
    19:00 +28°C° 0.1 mm 2 mps 762 mmHg 72%
    20:00 +27°C° 0.1 mm 2 mps 762 mmHg 79%
    21:00 +26°C° 0.3 mm 1 mps 763 mmHg 82%
    22:00 +25°C° 0.3 mm 1 mps 763 mmHg 84%
    23:00 +22°C° 0.3 mm 0 mps 763 mmHg 86%

    27 June, Thursday

    Time Temperature Precipitation Wind Pressure Humidity
    00:00 +22°C° 0 mm 0 mps 763 mmHg 86%
    01:00 +22°C° 0 mm 0 mps 763 mmHg 86%
    02:00 +22°C° 0 mm 0 mps 763 mmHg 85%
    03:00 +22°C° 0 mm 0 mps 762 mmHg 87%
    04:00 +21°C° 0 mm 0 mps 762 mmHg 88%
    05:00 +21°C° 0 mm 0 mps 762 mmHg 89%
    06:00 +22°C° 0 mm 0 mps 762 mmHg 85%
    07:00 +24°C° 0 mm 0 mps 762 mmHg 81%
    08:00 +25°C° 0 mm 0 mps 761 mmHg 77%
    09:00 +26°C° 0 mm 0 mps 761 mmHg 72%
    10:00 +28°C° 0 mm 0 mps 761 mmHg 66%
    11:00 +29°C° 0 mm 0 mps 761 mmHg 61%
    12:00 +32°C° 0 mm 1 mps 760 mmHg 57%
    13:00 +33°C° 0 mm 1 mps 759 mmHg 53%
    14:00 +34°C° 0 mm 1 mps 759 mmHg 49%
    15:00 +34°C° 0 mm 1 mps 759 mmHg 48%
    16:00 +34°C° 0 mm 1 mps 758 mmHg 47%
    17:00 +35°C° 0 mm 2 mps 758 mmHg 47%
    18:00 +32°C° 0 mm 2 mps 757 mmHg 54%
    19:00 +30°C° 0 mm 3 mps 757 mmHg 62%
    20:00 +29°C° 0 mm 3 mps 757 mmHg 70%
    21:00 +28°C° 0 mm 3 mps 757 mmHg 72%
    22:00 +27°C° 0 mm 3 mps 757 mmHg 74%
    23:00 +26°C° 0 mm 4 mps 757 mmHg 76%

    28 June, Friday

    Time Temperature Precipitation Wind Pressure Humidity
    00:00 +25°C° 0 mm 4 mps 757 mmHg 76%
    01:00 +25°C° 0 mm 4 mps 756 mmHg 76%
    02:00 +25°C° 0 mm 4 mps 756 mmHg 76%
    03:00 +25°C° 0 mm 4 mps 756 mmHg 75%
    04:00 +23°C° 0 mm 4 mps 756 mmHg 75%
    05:00 +23°C° 0 mm 4 mps 755 mmHg 74%
    06:00 +25°C° 0 mm 5 mps 755 mmHg 73%
    07:00 +27°C° 0 mm 6 mps 755 mmHg 71%
    08:00 +28°C° 0 mm 7 mps 755 mmHg 70%
    09:00 +28°C° 0 mm 7 mps 755 mmHg 67%
    10:00 +29°C° 0 mm 8 mps 755 mmHg 65%
    11:00 +31°C° 0 mm 8 mps 755 mmHg 63%
    12:00 +31°C° 0 mm 8 mps 755 mmHg 60%
    13:00 +32°C° 0 mm 8 mps 755 mmHg 58%
    14:00 +32°C° 0 mm 8 mps 755 mmHg 55%
    15:00 +32°C° 0 mm 8 mps 755 mmHg 54%
    16:00 +32°C° 0 mm 8 mps 755 mmHg 53%
    17:00 +31°C° 0 mm 8 mps 755 mmHg 52%
    18:00 +29°C° 0 mm 7 mps 756 mmHg 57%
    19:00 +27°C° 0 mm 6 mps 756 mmHg 62%
    20:00 +26°C° 0 mm 5 mps 756 mmHg 66%
    21:00 +25°C° 0 mm 5 mps 757 mmHg 67%
    22:00 +23°C° 0 mm 5 mps 757 mmHg 68%
    23:00 +23°C° 0 mm 5 mps 758 mmHg 69%

    29 June, Saturday

    Time Temperature Precipitation Wind Pressure Humidity
    00:00 +22°C° 0 mm 4 mps 758 mmHg 71%
    01:00 +22°C° 0 mm 3 mps 758 mmHg 72%
    02:00 +22°C° 0 mm 3 mps 758 mmHg 74%
    03:00 +22°C° 0 mm 3 mps 758 mmHg 75%
    04:00 +23°C° 0 mm 2 mps 758 mmHg 77%
    05:00 +21°C° 0 mm 2 mps 758 mmHg 78%
    06:00 +23°C° 0 mm 2 mps 758 mmHg 78%
    07:00 +23°C° 0 mm 2 mps 758 mmHg 78%
    08:00 +23°C° 0 mm 2 mps 758 mmHg 78%
    09:00 +24°C° 0 mm 2 mps 758 mmHg 73%
    10:00 +26°C° 0 mm 1 mps 758 mmHg 68%
    11:00 +27°C° 0 mm 1 mps 758 mmHg 64%
    12:00 +28°C° 0.1 mm 2 mps 758 mmHg 58%
    13:00 +30°C° 0.1 mm 3 mps 758 mmHg 53%
    14:00 +31°C° 0.1 mm 3 mps 757 mmHg 47%
    15:00 +32°C° 0 mm 4 mps 757 mmHg 49%
    16:00 +30°C° 0 mm 5 mps 757 mmHg 50%
    17:00 +30°C° 0 mm 6 mps 757 mmHg 52%
    18:00 +28°C° 0 mm 5 mps 757 mmHg 57%
    19:00 +26°C° 0 mm 5 mps 757 mmHg 61%
    20:00 +25°C° 0 mm 4 mps 757 mmHg 65%
    21:00 +23°C° 0 mm 4 mps 758 mmHg 67%
    22:00 +22°C° 0 mm 4 mps 758 mmHg 69%
    23:00 +22°C° 0 mm 4 mps 759 mmHg 70%
    Show more